Terug naar catalogus

THORAD AGENA D DEB

ActiefLEO
NORAD 4968·DEBRIS·🇺🇸 United States

Gelanceerd Apr 8, 1970 vanaf Vandenberg Space Force Base

Loading…

Volgende Passages

TLE

Source: Space-Track
1 04968U 70025GN  26230.02802589  .00000105  00000-0  19668-3 0  9997
2 04968 100.1799 243.1149 0018897 227.2376 189.1621 13.62751624792836

Volg THORAD AGENA D DEB in realtime met AllMySat

Download on the App Store